Ottumwa, IA

10:16 AM CDT on August 22, 2017 (GMT -0500)
Ottumwa Industrial

Weather History for KOTM - June, 2013

Change the Weather History Date:

Thursday, June 20, 2013

  Actual Average Record
Temperature  
Mean Temperature 78 °F 72 °F  
Max Temperature 89 °F 83 °F 102 °F (1936)
Min Temperature 66 °F 62 °F 47 °F (1920)
Degree Days  
Heating Degree Days 0 0  
Month to date heating degree days 26 19  
Since 1 June heating degree days 26 19  
Since 1 July heating degree days 6271 6315  
Cooling Degree Days 13 8  
Month to date cooling degree days 83 112  
Year to date cooling degree days 160 176  
Since 1 June cooling degree days 83 112  
Growing Degree Days 27 (Base 50)    
Moisture  
Dew Point 63 °F    
Average Humidity 61    
Maximum Humidity 78    
Minimum Humidity 43    
Precipitation  
Precipitation 0.00 in 0.17 in 3.20 in (1931)
Month to date precipitation 1.64 3.40  
Year to date precipitation 25.39 15.93  
Sea Level Pressure  
Sea Level Pressure 30.01 in    
Wind  
Wind Speed 12 mph (SSE)    
Max Wind Speed 23 mph    
Max Gust Speed 29 mph    
Visibility 10 miles    
Events      
T = Trace of Precipitation, MM = Missing Value Source: NWS Daily Summary

Daily Weather History Graph

Daily Weather History Graph

Search for Another Location

Airport or City:

Trip Planner

Search our weather history database for the weather conditions in past years. The results will help you decide how hot, cold, wet, or windy it might be!

Date:

Astronomy

Jun. 20, 2013 Rise Set
Actual Time 5:37 AM CDT 8:45 PM CDT
Civil Twilight 5:03 AM CDT 9:19 PM CDT
Nautical Twilight 4:20 AM CDT 10:02 PM CDT
Astronomical Twilight 3:28 AM CDT 10:54 PM CDT
Moon 5:47 PM CDT (6/20) 3:05 AM CDT (6/20)
Length of Visible Light 16h 15m
Length of Day
15h 08m
Waxing Gibbous, 89% of the Moon is Illuminated
Jun 20
Waxing Gibbous
Jun 23
Full
Jun 29
Last Quarter
Jul 8
New
Jul 15
First Quarter

Hourly Weather History & Observations

Time (CDT) Temp. Heat Index Dew Point Humidity Pressure Visibility Wind Dir Wind Speed Gust Speed Precip Events Conditions
12:53 AM 68.0 °F - 59.0 °F 73% 30.04 in 10.0 mi SSE 5.8 mph - N/A   Clear
1:53 AM 66.9 °F - 59.0 °F 76% 30.04 in 10.0 mi SE 5.8 mph - N/A   Clear
2:53 AM 66.0 °F - 59.0 °F 78% 30.04 in 10.0 mi SE 6.9 mph - N/A   Clear
3:53 AM 68.0 °F - 59.0 °F 73% 30.04 in 10.0 mi SSE 8.1 mph - N/A   Partly Cloudy
4:53 AM 66.9 °F - 59.0 °F 76% 30.03 in 10.0 mi SSE 9.2 mph - N/A   Clear
5:53 AM 66.0 °F - 59.0 °F 78% 30.05 in 10.0 mi SSE 9.2 mph - N/A   Clear
6:53 AM 69.1 °F - 59.0 °F 70% 30.05 in 10.0 mi SE 8.1 mph - N/A   Clear
7:53 AM 73.0 °F - 61.0 °F 66% 30.05 in 10.0 mi SSE 8.1 mph - N/A   Clear
8:53 AM 75.0 °F - 63.0 °F 66% 30.05 in 10.0 mi SSE 12.7 mph - N/A   Clear
9:53 AM 79.0 °F - 64.9 °F 62% 30.05 in 10.0 mi SSE 12.7 mph 18.4 mph N/A   Clear
10:53 AM 82.0 °F 84.5 °F 66.9 °F 60% 30.04 in 10.0 mi South 12.7 mph - N/A   Clear
11:53 AM 84.9 °F 87.6 °F 66.9 °F 55% 30.03 in 10.0 mi South 12.7 mph - N/A   Clear
12:53 PM 87.1 °F 89.9 °F 66.9 °F 51% 30.02 in 10.0 mi South 16.1 mph 23.0 mph N/A   Partly Cloudy
1:53 PM 87.1 °F 89.2 °F 66.0 °F 49% 30.00 in 10.0 mi SSE 16.1 mph - N/A   Scattered Clouds
2:53 PM 88.0 °F 89.6 °F 64.9 °F 46% 29.99 in 10.0 mi South 17.3 mph 26.5 mph N/A   Clear
3:53 PM 87.1 °F 88.3 °F 64.0 °F 46% 29.99 in 10.0 mi South 17.3 mph 25.3 mph N/A   Partly Cloudy
4:53 PM 88.0 °F 89.3 °F 64.0 °F 45% 29.97 in 10.0 mi South 16.1 mph 28.8 mph N/A   Partly Cloudy
5:53 PM 88.0 °F 88.7 °F 63.0 °F 43% 29.96 in 10.0 mi South 12.7 mph 26.5 mph N/A   Clear
6:53 PM 84.0 °F 84.5 °F 62.1 °F 47% 29.96 in 10.0 mi South 13.8 mph 19.6 mph N/A   Overcast
7:53 PM 82.9 °F 84.4 °F 64.0 °F 53% 29.96 in 10.0 mi SSE 12.7 mph - N/A   Overcast
8:53 PM 80.1 °F 81.7 °F 64.0 °F 58% 29.95 in 10.0 mi SSE 11.5 mph - N/A   Clear
9:53 PM 80.1 °F 81.7 °F 64.0 °F 58% 29.96 in 10.0 mi South 11.5 mph - N/A   Scattered Clouds
10:53 PM 79.0 °F - 64.9 °F 62% 29.96 in 10.0 mi South 12.7 mph - N/A   Clear
11:53 PM 78.1 °F - 64.9 °F 64% 29.98 in 10.0 mi South 10.4 mph - N/A   Clear